Regional Weather Roundup
Issued by NWS

Home | Current Version | Previous Version | Graphics & Text | Print | Product List | Glossary On
Versions: 1 2 3 4 5 6 7 8 9 10 11 12 13 14 15 16 17 18 19 20 21 22 23 24 25 26 27 28 29 30 31 32 33 34 35 36 37 38 39 40 41 42 43 44 45 46 47 48 49 50
000
ASUS43 KIND 190409
RWRIN

WEATHER ROUNDUP FOR INDIANA
NATIONAL WEATHER SERVICE INDIANAPOLIS IN
1200 AM EDT SAT APR 19 2014

NOTE: "FAIR" INDICATES FEW OR NO CLOUDS BELOW 12,000 FEET WITH NO
SIGNIFICANT WEATHER AND/OR OBSTRUCTIONS TO VISIBILITY.

* - STATION DOES NOT REPORT WEATHER SUCH AS PRECIPITATION OR FOG.

+ - STATION NOT QUALITY CONTROLLED BY THE NATIONAL WEATHER SERVICE.
    USE DATA WITH CAUTION...ESPECIALLY DEWPOINT AND RELATIVE
    HUMIDITY OBSERVATIONS.

INZ001>003-010>013-019-020-190500-
NORTHWEST INDIANA

CITY           SKY/WX    TMP DP  RH WIND       PRES   REMARKS
GARY /AIRPORT/ CLEAR     39  31  72 N8        30.38R
LA PORTE +     CLEAR     35  25  65 N7        30.35S WCI  29
MICHIGAN CITY+ CLEAR     36  27  69 N6        30.36S
MONTICELLO +   CLEAR     42  33  71 NE5       30.32F
RENSSELAER +   CLEAR     37  30  75 CALM      30.35R
VALPARAISO     CLEAR     35  25  66 N6        30.35S WCI  30

$$

LMZ046-743>745-190500-
SOUTHERN LAKE MICHIGAN

STATION/POSITION TIME  TEMP WIND        PRES
                       AIR  DIR/SP/G
                 (UTC) (F)  (DEG/KT/KT) (MB)
MICHIGAN CITY    0400   38   10/ 10/ 13   N/A

$$

INZ004-005-014>016-021>024-190500-
NORTH CENTRAL INDIANA

CITY           SKY/WX    TMP DP  RH WIND       PRES   REMARKS
GOSHEN         CLEAR     39  28  64 N7        30.32S
LOGANSPORT +   CLEAR     43  32  65 N6        30.33S
PERU/GRISSOM   CLEAR     45  34  64 N13       30.31S
ROCHESTER +    CLEAR     43  32  65 CALM      30.33R
SOUTH BEND     CLEAR     35  23  61 N6        30.35S WCI  30
WARSAW +       CLEAR     39  32  75 N3        30.32S

$$

INZ006>009-017-018-025>027-190500-
NORTHEAST INDIANA

CITY           SKY/WX    TMP DP  RH WIND       PRES   REMARKS
ANGOLA *+      CLEAR     43  34  70 N3        30.31R
AUBURN +       CLEAR     45  32  61 CALM      30.31S
FORT WAYNE     CLEAR     45  35  68 N9        30.31S

$$

INZ028-029-035-036-043>045-051>053-190500-
WEST CENTRAL INDIANA

CITY           SKY/WX    TMP DP  RH WIND       PRES   REMARKS
GREENCASTLE +  CLEAR     50  37  62 N9        30.29R
LAFAYETTE      CLEAR     44  32  62 NE7       30.33R
TERRE HAUTE    CLEAR     55  38  52 NE12      30.27R

$$

INZ030>032-037>040-046>048-054>057-064-065-190500-
CENTRAL INDIANA

CITY           SKY/WX    TMP DP  RH WIND       PRES   REMARKS
CP ATTERBURY + PTCLDY    54  41  62 N9        30.26R
INDIANAPOLIS   CLEAR     53  36  52 N14       30.27R
-EAGLE CREEK   CLEAR     52  35  52 N9        30.28R
KOKOMO *+      CLEAR     46  36  66 N7        30.31S
MARION +       CLEAR     47  35  63 N7        30.31S
MT COMFORT *+  CLEAR     50  39  66 N10       30.29R
SHELBYVILLE    PTCLDY    56  39  53 N9        30.26R
ZIONSVILLE +   CLEAR     48  37  64 N9        30.30R

$$

INZ033-034-041-042-049-050-058-059-190500-
EAST CENTRAL INDIANA

CITY           SKY/WX    TMP DP  RH WIND       PRES   REMARKS
MUNCIE         CLEAR     49  37  63 N9        30.29R

$$

INZ060-061-067>069-081>083-085>088-190500-
SOUTHWEST INDIANA

CITY           SKY/WX    TMP DP  RH WIND       PRES   REMARKS
EVANSVILLE     MOCLDY    61  43  51 CALM      30.22S
HUNTINGBURG *+ MOCLDY    57  39  51 E5        30.23R
WASHINGTON +   MOCLDY    55  45  68 N8        30.23S

$$

INZ062-063-066-070>080-084-089>092-190500-
SOUTH CENTRAL AND SOUTHEAST INDIANA

CITY           SKY/WX    TMP DP  RH WIND       PRES   REMARKS
BLOOMINGTON    PTCLDY    50  40  68 N6        30.25R
NORTH VERNON + MOCLDY    55  43  62 N5        30.24S

$$




USA.gov is the U.S. government's official web portal to all federal, state and local government web resources and services.